FENGYUN 1C DEB, 33630

Orbit data source: Space-Track

FENGYUN 1C DEB, 33630 is space debris in SSO originally from a launch on Mon, 10 May 1999 UTC launched from the Taiyaun Space Center, China (TSC). Fengyun 1C debris stems from the Chinese weather satellite Fengyun-1C, which was intentionally destroyed by a Chinese anti-satellite missile in 2007. This event dramatically increased the amount of space debris, with thousands of trackable fragments posing hazards to satellites and human spaceflight. The Fengyun 1C debris cloud has become a focal point in discussions about space sustainability and the need for international regulations to prevent the creation of new debris.

Loading next visibility...
Identifier
33630, 1999-025DDP
Orbit
SSO
Country
Flag of CNCN / PRC
Related business
Manufacturer
Unknown
Mission
Spacecraft
Bus & Motor
Unknown
Mass
Unknown
Launch date (UTC)
1999-05-10 (27 years ago)
Launch vehicle
Unknown
Launch site
Taiyaun Space Center, China (TSC)
Object type
Payload
Rocket body
Debris
Shape & HBR
Unknown shape, 0.1 m
Radar Cross Section
Small (<0.1 m²)

Expand to show TLE details & history
Last TLE update: 1 week ago

TLE from 1 week ago
0 FENGYUN 1C DEB
1 33630U 99025DDP 26143.55399311  .00000367  00000-0  18364-3 0  9993
2 33630  98.6216 250.0207 0133058 322.2984  36.8923 14.18006575667046
Epoch: 2026-05-23T13:17Z
TLE epoch observation values (Epoch: 2026-05-23T13:17:45.004Z)
Latitude
-0.00005°
Longitude
169.41436°
Altitude
758.742 km
Speed
7.514 km/s
True Right ascension
16h 40m 04s
True Declination
0° 00' 00"
Sunlit
Object was in full shadow at epoch
Visualization orbit readout
Latitude
Unknown
Longitude
Unknown
Altitude
Unknown
Speed
Unknown
Apparent Right ascension
Unknown
Apparent Declination
Unknown
Sunlit
N/A
Visualization observer readout
Local Sidereal Time
19:48:03
Azimuth
Unknown
Elevation
Unknown
Doppler factor
Unknown
Orbital elements
Apogee altitude
925.159 km
Perigee altitude
733.358 km
Semi-major axis
7,207.396 km
Eccentricity
0.01331
Inclination
98.6216°
RAAN
250.0207°
Arg. of periapsis
322.2984°
True anomaly
37.81991°
Mean anomaly
36.8923°
Eccentric anomaly
37.35487°
Mean motion
3.54712 °/min
Orbital period
101.49 mins
BSTAR
0.00018364
Loading maneuver chart data...
Computing Atmospheric mass density...
Loading historical data...
Loading historical data...
Loading historical data...
Loading historical data...
Loading historical data...
Loading historical data...
Loading historical data...

Documentation

Showing up to 5 results
|